Location: Altleiningen
(49.5078°N, 8.0741°E)
Time: 00:04:56
(UTC+00:00)

SJ 16-02 - Pass Details

Date: 03 March 2021
Orbit: 605 x 617 km, 75.0° (Epoch: 13 April)

Event Time Altitude Azimuth Distance (km) Brightness Sun altitude
Rises 21:12:45 0° 323° (NW) 2,884 5.7 -37.1°
Reaches altitude 10° 21:15:41 10° 303° (WNW) 1,976 4.7 -37.4°
Enters shadow 21:16:34 13° 293° (WNW) 1,779 4.3 -37.6°
